Weather History for KGMU - January, 2014

Change the Weather History Date:

Sunday, January 5, 2014

  Actual Average Record
Temperature  
Mean Temperature 37 °F -  
Max Temperature 41 °F 51 °F 70 °F (2009)
Min Temperature 33 °F 34 °F 15 °F (1999)
Degree Days  
Heating Degree Days 28    
Moisture  
Dew Point 36 °F    
Average Humidity 93    
Maximum Humidity 100    
Minimum Humidity 64    
Precipitation  
Precipitation 0.10 in - - ()
Sea Level Pressure  
Sea Level Pressure 30.03 in    
Wind  
Wind Speed 4 mph (ENE)    
Max Wind Speed 8 mph    
Max Gust Speed -    
Visibility 2 miles    
Events Fog , Rain    
Averages and records for this station are not official NWS values.
T = Trace of Precipitation, MM = Missing Value Source: NWS Daily Summary

Daily Weather History Graph

Daily Weather History Graph

Search for Another Location

Airport or City:

Trip Planner

Search our weather history database for the weather conditions in past years. The results will help you decide how hot, cold, wet, or windy it might be!

Date:

Astronomy

Jan. 05, 2014 Rise Set
Actual Time 7:37 AM EST 5:32 PM EST
Civil Twilight 7:09 AM EST 6:00 PM EST
Nautical Twilight 6:38 AM EST 6:31 PM EST
Astronomical Twilight 6:07 AM EST 7:02 PM EST
Moon 10:30 AM EST (1/5) 10:45 PM EST (1/5)
Length of Visible Light 10h 50m
Length of Day
9h 54m
Waxing Crescent, 24% of the Moon is Illuminated
Jan 5
Waxing Crescent
Jan 7
First Quarter
Jan 15
Full
Jan 24
Last Quarter
Jan 30
New

Hourly Weather History & Observations

Time (EST) Temp. Windchill Dew Point Humidity Pressure Visibility Wind Dir Wind Speed Gust Speed Precip Events Conditions
12:53 AM 34.0 °F 29.8 °F 23.0 °F 64% 30.25 in 10.0 mi North 4.6 mph - N/A   Overcast
1:53 AM 33.1 °F 27.7 °F 26.1 °F 75% 30.23 in 10.0 mi NNE 5.8 mph - 0.00 in   Overcast
2:53 AM 33.1 °F 27.7 °F 27.0 °F 78% 30.22 in 10.0 mi NNE 5.8 mph - N/A   Overcast
3:53 AM 33.1 °F 28.7 °F 28.0 °F 82% 30.21 in 8.0 mi NE 4.6 mph - N/A   Overcast
4:53 AM 33.1 °F 30.0 °F 30.0 °F 89% 30.19 in 3.0 mi ENE 3.5 mph - 0.00 in   Overcast
5:00 AM 33.8 °F 30.8 °F 30.2 °F 87% 30.16 in 2.0 mi ENE 3.5 mph - N/A   Overcast
5:14 AM 33.8 °F - 30.2 °F 87% 30.15 in 3.0 mi Calm Calm - N/A   Overcast
5:21 AM 33.8 °F - 30.2 °F 87% 30.15 in 4.0 mi Calm Calm - N/A   Overcast
5:51 AM 33.8 °F 29.6 °F 30.2 °F 87% 30.14 in 2.5 mi ENE 4.6 mph - N/A   Overcast
5:53 AM 34.0 °F 31.0 °F 30.9 °F 89% 30.17 in 2.5 mi ENE 3.5 mph - N/A   Overcast
6:30 AM 33.8 °F 29.6 °F 32.0 °F 93% 30.15 in 1.5 mi NE 4.6 mph - 0.00 in   Overcast
6:53 AM 34.0 °F 28.8 °F 32.0 °F 92% 30.16 in 1.0 mi NE 5.8 mph - 0.00 in   Mist
7:22 AM 33.8 °F 30.8 °F 33.8 °F 100% 30.14 in 0.8 mi North 3.5 mph - N/A   Mist
7:53 AM 34.0 °F 27.2 °F 32.0 °F 92% 30.15 in 1.2 mi NE 8.1 mph - 0.01 in Rain Light Rain
8:28 AM 33.8 °F 30.8 °F 33.8 °F 100% 30.14 in 3.0 mi NE 3.5 mph - 0.05 in Rain Light Rain
8:53 AM 35.1 °F 31.0 °F 33.1 °F 92% 30.16 in 6.0 mi NE 4.6 mph - 0.05 in   Overcast
9:19 AM 35.6 °F 31.7 °F 33.8 °F 93% 30.13 in 4.0 mi NNE 4.6 mph - N/A   Overcast
9:37 AM 35.6 °F 29.2 °F 33.8 °F 93% 30.12 in 2.0 mi NNE 8.1 mph - N/A   Overcast
9:46 AM 35.6 °F 32.8 °F 35.6 °F 100% 30.13 in 1.8 mi NNE 3.5 mph - N/A   Overcast
9:53 AM 36.0 °F 32.1 °F 34.0 °F 93% 30.16 in 1.5 mi NNE 4.6 mph - N/A   Overcast
10:53 AM 37.0 °F - 36.0 °F 96% 30.14 in 1.0 mi Calm Calm - 0.00 in Rain Light Rain
11:39 AM 37.4 °F 34.9 °F 35.6 °F 93% 30.09 in 0.8 mi East 3.5 mph - 0.01 in   Overcast
11:53 AM 37.9 °F 34.4 °F 36.0 °F 93% 30.10 in 1.0 mi NE 4.6 mph - 0.01 in   Overcast
12:21 PM 39.2 °F - 37.4 °F 93% 30.06 in 2.0 mi Calm Calm - N/A   Overcast
12:53 PM 39.0 °F 36.8 °F 37.0 °F 93% 30.05 in 2.0 mi NE 3.5 mph - N/A   Overcast
1:01 PM 39.2 °F 37.0 °F 37.4 °F 93% 30.02 in 1.5 mi NE 3.5 mph - N/A   Overcast
1:53 PM 39.9 °F - 37.9 °F 93% 30.03 in 1.0 mi Calm Calm - N/A   Overcast
2:14 PM 39.2 °F - 37.4 °F 93% 29.99 in 0.8 mi Calm Calm - N/A   Overcast
2:53 PM 39.9 °F 37.8 °F 39.0 °F 97% 30.01 in 0.2 mi South 3.5 mph - N/A Fog Fog
3:53 PM 39.9 °F - 39.0 °F 97% 29.99 in 0.2 mi Calm Calm - N/A Fog Fog
4:34 PM 39.2 °F - 39.2 °F 100% 29.97 in 0.5 mi Calm Calm - N/A Fog Fog
4:53 PM 41.0 °F - 39.0 °F 93% 29.99 in 0.5 mi Calm Calm - N/A Fog Fog
5:46 PM 39.2 °F - 39.2 °F 100% 29.94 in 2.0 mi Calm Calm - N/A   Overcast
5:53 PM 39.9 °F 37.8 °F 39.0 °F 97% 29.96 in 4.0 mi SSE 3.5 mph - N/A   Overcast
6:00 PM 39.2 °F - 37.4 °F 93% 29.94 in 1.8 mi Calm Calm - N/A   Overcast
6:14 PM 39.2 °F - 39.2 °F 100% 29.94 in 0.5 mi Calm Calm - N/A Fog Fog
6:53 PM 41.0 °F 37.1 °F 39.0 °F 93% 29.95 in 0.5 mi South 5.8 mph - N/A Fog Fog
7:09 PM 39.2 °F 34.2 °F 39.2 °F 100% 29.92 in 0.2 mi South 6.9 mph - N/A Fog Fog
7:23 PM 39.2 °F 35.0 °F 39.2 °F 100% 29.93 in 0.2 mi SSW 5.8 mph - N/A Fog Fog
7:53 PM 39.9 °F 37.8 °F 39.0 °F 97% 29.93 in 0.2 mi WSW 3.5 mph - N/A Fog Fog
8:41 PM 41.0 °F - 39.2 °F 93% 29.89 in 0.2 mi Calm Calm - N/A Fog Fog
8:49 PM 41.0 °F - 39.2 °F 93% 29.88 in 0.5 mi Calm Calm - N/A Fog Fog
8:53 PM 41.0 °F 39.0 °F 39.9 °F 96% 29.90 in 0.5 mi South 3.5 mph - N/A Fog Fog
9:35 PM 41.0 °F - 39.2 °F 93% 29.86 in 1.2 mi Calm Calm - N/A   Overcast
9:53 PM 41.0 °F 38.0 °F 39.0 °F 93% 29.87 in 1.0 mi South 4.6 mph - N/A   Mist
10:06 PM 41.0 °F 39.0 °F 39.2 °F 93% 29.85 in 0.8 mi SW 3.5 mph - N/A   Mist
10:53 PM 39.9 °F 37.8 °F 39.0 °F 97% 29.84 in 1.2 mi SSW 3.5 mph - 0.03 in Rain Light Rain
11:05 PM 39.2 °F 37.0 °F 39.2 °F 100% 29.80 in 2.0 mi SSE 3.5 mph - 0.00 in   Overcast
11:12 PM 39.2 °F - 39.2 °F 100% 29.79 in 1.2 mi Calm Calm - 0.00 in   Overcast
11:37 PM 39.2 °F 37.0 °F 39.2 °F 100% 29.77 in 3.0 mi WSW 3.5 mph - 0.00 in   Overcast
11:53 PM 39.9 °F 36.7 °F 39.0 °F 97% 29.79 in 2.5 mi West 4.6 mph - 0.00 in   Overcast